Flag for U.S.A. Weather past 2 weeks in Trenton, New Jersey, U.S.A.

Now
49 °F

Clear.


Feels Like: 45 °F
Forecast: 42 / 59 °F
Wind: 8 mph from East

Location: Mercer County Airport


UV Index: 5 (Moderate)

Visibility: 10 mi


Pressure: 30.32 "Hg

Humidity: 46%

Dew point: 29 °F

Location of TrentonLocation

Historic Weather in Trenton

°F

Trenton temperature yesterday

Maximum temperature yesterday: 66 °F (at 3:53 PM)
Minimum temperature yesterday: 38 °F (at 5:53 AM)
Average temperature yesterday: 53 °F

Past Weeks' High & Low Weather Summary

 TemperatureHumidityPressure
High81 °F (Apr 13, 2:53 PM)100% (Apr 8, 2:53 AM)30.69 "Hg (Apr 8, 2:53 AM)
Low30 °F (Apr 16, 6:53 AM)18% (Apr 19, 5:53 PM)29.44 "Hg (Apr 8, 7:53 AM)
Average52 °F57%30.05 "Hg
* Reported Apr 4 11:53 PM — Apr 19 11:53 PM, Trenton, Weather by CustomWeather, © 2014

Note: Actual official high and low records may vary slightly from our data, if they occured in-between our weather recording intervals... More about our weather records

Advertising

Historic Weather Conditions — Data for Previous 24 hours

 ConditionsComfort  
Time TempWeatherWind HumidityBarometerVisibility
11:53 PM
Apr 19
49 °FClear.8 mph46%30.32 "Hg10 mi
10:53 PM51 °FClear.3 mph36%30.30 "Hg10 mi
9:53 PM57 °FClear.5 mph26%30.29 "Hg10 mi
8:53 PM58 °FClear.5 mph25%30.27 "Hg10 mi
7:53 PM60 °FSunny.5 mph23%30.24 "Hg10 mi
6:53 PM64 °FSunny.10 mph18%30.22 "Hg10 mi
5:53 PM66 °FSunny.9 mph18%30.22 "Hg10 mi
4:53 PM65 °FSunny.5 mph19%30.21 "Hg10 mi
3:53 PM66 °FSunny.8 mph19%30.22 "Hg10 mi
2:53 PM64 °FSunny.13 mph20%30.22 "Hg10 mi
1:53 PM65 °FSunny.13 mph19%30.22 "Hg10 mi
12:53 PM63 °FSunny.14 mph27%30.23 "Hg10 mi
11:53 AM61 °FSunny.8 mph30%30.26 "Hg10 mi
10:53 AM59 °FSunny.9 mph35%30.27 "Hg10 mi
9:53 AM55 °FSunny.14 mph45%30.26 "Hg10 mi
8:53 AM50 °FSunny.7 mph61%30.26 "Hg10 mi
7:53 AM43 °FSunny.12 mph76%30.25 "Hg10 mi
6:53 AM38 °FClear.No wind90%30.24 "Hg8 mi
5:53 AM38 °FClear.No wind86%30.22 "Hg9 mi
4:53 AM39 °FClear.5 mph86%30.22 "Hg9 mi
3:53 AM39 °FClear.3 mph86%30.22 "Hg10 mi
2:53 AM40 °FClear.No wind80%30.23 "Hg10 mi
1:53 AM39 °FClear.No wind82%30.24 "Hg10 mi
Weather by CustomWeather, © 2014

See weather overview